Location: Avenches
(46.8809°N, 7.0410°E)
Time: 23:37:22
(UTC+00:00)

SL-08 RB Rocket - Pass Details

Date: 30 March 2020
Orbit: 646 x 684 km, 97.8° (Epoch: 24 May)

Event Time Altitude Azimuth Distance (km) Brightness Sun altitude
Exits shadow 18:34:25 - 137° (SE) 2,639 6.3 -6.8°
Reaches altitude 10° 18:35:56 10° 130° (SE) 2,067 5.7 -7.1°
Maximum altitude 18:39:58 33° 67° (ENE) 1,120 4.5 -7.7°
Drops below altitude 10° 18:44:03 10° 4° (N) 2,102 6.4 -8.4°
Sets 18:46:27 0° 355° (N) 3,027 7.4 -8.8°
